www.pogodaiklimat.ru

Погода и климат >> Архив погоды >> Россия >> Краснодарский край >> Анапа


АРХИВ ПОГОДЫ в Анапе

Время (UTC), дата Ветер
(напр.,м/с)
 
Видим.   Явления Облачность Т
(С)
Тd
(С)
f
(%)
Тe
(С)
Тes
(С)
Комфортность P
(гПа)
Po
(гПа)
Тmin
(С)
Tmax
(С)
R
(мм)
R24
(мм)
S
(см)
21 17.05 СЗ 1 4000 м дымка ясно +18.1 +16.8 92 +19 +19 тепло 1007.6 1004.0
00 18.05 СВ 3 10 км 3/0
[Ci fib]
+18.8 +15.2 80 +20 +20 тепло 1005.6 1002.0
03 18.05 СВ 3 10 км 6/0
[Ci sp]
+20.5 +14.1 67 +23 +24 комфорт 1005.5 1001.9 +18.0
06 18.05 СВ 2 10 км 9/5 600 м
[Cb cap Ac trans Ci sp]
+22.7 +16.0 66 +27 +30 душно 1005.1 1001.5
09 18.05 З 2 20 км 4/0
[Ci fib]
+22.4 +17.9 76 +27 +44 душно 1005.9 1002.3
12 18.05 ЮЗ 2 20 км 3/0
[Ci fib]
+23.7 +17.5 68 +28 +40 душно 1005.5 1001.9
15 18.05 СВ 6-10
{10}
20 км 5/0
[Ci sp]
+28.6 +17.3 50 +33 +33 очень
душно
1003.0 999.5 +29.5
18 18.05 ЮВ 2
{11}
10 км 4/0
[Ac trans Ci fib]
+22.3 +17.6 75 +27 +27 душно 1004.7 1001.1
21 18.05 В 1 10 км 5/0
[Ci]
+21.4 +16.2 72 +25 +25 комфорт 1004.0 1000.4
00 19.05 В 3 10 км 8/0
[Ac As Ci fib]
+22.3 +14.8 63 +26 +26 жарко 1003.7 1000.2
03 19.05 Ю 4 10 км 8/8 600 м
[Sc Ci fib]
+19.1 +17.6 91 +21 +21 комфорт 1005.0 1001.4 +19.1
06 19.05 Ю 4 10 км 9/6 600 м
[Cb cap Ac trans]
+20.7 +18.2 86 +25 +26 комфорт 1006.6 1003.0 +18.5
09 19.05 ЮВ 3
{13}
10 км слаб. ливневой дождь 10/10 300 м
[Cb cap]
+19.9 +17.7 87 +23 +23 комфорт 1009.2 1005.6
12 19.05 Ю 5 10 км {ливн. осадки} 10/10 300 м
[Cb cap]
+18.9 +17.1 89 +20 +20 тепло 1010.6 1007.0
15 19.05 Ю 1 4000 м гроза, ливневой дождь 9/8 300 м
[Cb cap Ci sp]
+18.2 +17.4 95 +20 +20 тепло 1010.9 1007.2 +22.2 2
18 19.05 Ю 2 4000 м дымка {гроза, ливн. осадки} 10/8 300 м
[Cb cap Ci sp]
+18.4 +17.2 93 +20 +20 тепло 1011.9 1008.3
21 19.05 З 1 4000 м дымка 10/10 600 м
[Sc]
+17.9 +17.0 94 +19 +19 тепло 1012.9 1009.2
00 20.05 СВ 1 4000 м дымка 10/10 600 м
[Sc]
+17.8 +16.8 94 +19 +19 тепло 1013.4 1009.8
03 20.05 Ю 2 4000 м дымка 10/10 300 м
[St]
+17.5 +16.7 95 +18 +18 тепло 1014.0 1010.3 +17.5 0.8
06 20.05 ЮЗ 1 4000 м 10/0
[Ac und]
+18.4 +17.2 93 +20 +23 тепло 1015.0 1011.4 +17.5
09 20.05 ЮЗ 3 10 км 10/5 600 м
[Cb cap Ac und]
+19.3 +17.1 87 +21 +24 комфорт 1016.1 1012.5
12 20.05 ЮЗ 2 10 км 10/6 600 м
[Cb cap Ac und]
+19.6 +17.0 85 +22 +24 комфорт 1016.8 1013.1
15 20.05 З 1 10 км 9/0
[Ac und Ci sp]
+19.6 +16.5 82 +23 +25 комфорт 1015.8 1012.2 +20.4
18 20.05 СВ 2 10 км 3/0
[Ci sp]
+19.0 +16.7 87 +21 +21 комфорт 1016.0 1012.4
21 20.05 СВ 2 10 км 8/0
[Ci sp]
+17.6 +16.0 90 +18 +18 тепло 1015.6 1011.9
00 21.05 СВ 3 10 км 8/0
[Ci sp]
+17.4 +14.8 85 +17 +17 тепло 1015.2 1011.5
03 21.05 СВ 1 10 км 9/0
[Ci sp]
+16.7 +14.8 89 +18 +18 тепло 1015.6 1011.9 +15.8
06 21.05 Ю 3 10 км 6/3 600 м
[Sc Ci fib]
+20.7 +17.1 80 +25 +30 комфорт 1016.8 1013.2
09 21.05 Ю 6 10 км 8/0
[Ac und Ci sp]
+20.4 +17.9 86 +24 +28 комфорт 1017.1 1013.5
12 21.05 Ю 4 10 км 9/0
[Ac und]
+20.3 +17.2 82 +24 +27 комфорт 1016.8 1013.2
15 21.05 Ю 3 10 км 8/0
[Ac und]
+19.2 +16.9 87 +21 +22 комфорт 1015.1 1011.4 +21.5
18 21.05 З 1 4000 м дымка 8/0
[Ac und]
+18.5 +17.0 91 +20 +20 тепло 1015.0 1011.4
21 21.05 СВ 1 4000 м дымка ясно +17.4 +16.4 94 +18 +18 тепло 1013.9 1010.2
00 22.05 СВ 3 10 км 8/0
[Ac und]
+17.0 +14.7 86 +17 +17 тепло 1012.6 1008.9
03 22.05 Ю 5
{11}
4000 м слаб. ливневой дождь 10/10 600 м
[Cb cap]
+18.2 +17.2 94 +18 +18 тепло 1014.0 1010.3 +16.3
06 22.05 Ю 1
{11}
10 км слаб. ливневой дождь 10/10 300 м
[Cb cap]
+17.2 +15.6 90 +18 +18 тепло 1013.0 1009.4
09 22.05 Ю 5 10 км 9/9 300 м
[Cb cap Ac As]
+20.0 +16.9 82 +23 +24 комфорт 1013.4 1009.8
12 22.05 Ю 7-10
{11}
20 км 4/4 300 м
[Cb cap]
+20.6 +17.1 80 +24 +26 комфорт 1013.4 1009.8
15 22.05 Ю 5
{10}
20 км 8/8 600 м
[Sc]
+20.4 +17.0 81 +24 +24 комфорт 1013.0 1009.3 +20.7 3
18 22.05 Ю 7 10 км 5/5 600 м
[Sc]
+18.7 +16.7 88 +19 +19 тепло 1013.4 1009.8
21 22.05 ЮЗ 7 4000 м зарница 4/4 300 м
[Cb cap]
+18.4 +16.2 87 +18 +18 тепло 1013.2 1009.5
00 23.05 ЮЗ 5
{11}
10 км 3/3 300 м
[Cb cap]
+17.9 +15.0 83 +17 +17 тепло 1012.7 1009.0
03 23.05 Ю 2 10 км 5/5 300 м
[Cb cap]
+17.7 +15.7 88 +18 +18 тепло 1012.5 1008.8 +17.5
06 23.05 Ю 8-10
{10}
10 км 5/3 300 м
[Sc Ci sp]
+18.9 +15.2 79 +19 +20 тепло 1012.3 1008.7
09 23.05 Ю 10-12
{12}
10 км 6/3 600 м
[Sc Ac trans]
+20.2 +16.1 77 +22 +23 комфорт 1012.4 1008.8
12 23.05 Ю 8-10
{12}
20 км 4/0
[Ac trans Ci fib]
+20.8 +15.7 73 +24 +26 комфорт 1012.3 1008.6
15 23.05 Ю 8
{10}
20 км ясно +20.5 +16.5 78 +23 +24 комфорт 1011.4 1007.8 +21.1
18 23.05 Ю 8-12
{13}
10 км 4/4 300 м
[St]
+19.0 +17.1 89 +20 +20 тепло 1011.4 1007.8
21 23.05 Ю 10-12
{13}
10 км 3/3 300 м
[St]
+18.8 +17.0 89 +19 +19 тепло 1011.2 1007.5
00 24.05 Ю 6
{12}
10 км 3/3 300 м
[St]
+18.3 +16.7 90 +18 +18 тепло 1010.9 1007.3
03 24.05 Ю 7 10 км 3/3 300 м
[St]
+18.5 +16.5 88 +19 +19 тепло 1010.3 1006.7 +18.3
06 24.05 Ю 7 10 км 5/3 600 м
[Cu med, cong Ci]
+19.9 +17.6 87 +22 +24 комфорт 1010.5 1006.9
09 24.05 Ю 7
{13}
20 км 8/1
[Cu med, cong Ci]
+21.2 +17.9 81 +25 +29 комфорт 1010.2 1006.6
12 24.05 Ю 6
{11}
20 км 9/1 600 м
[Cu med, cong Ci]
+22.0 +18.1 79 +27 +31 душно 1009.2 1005.6
15 24.05 Ю 5 20 км 10/0
[Ac und]
+20.0 +18.1 89 +23 +23 комфорт 1008.6 1005.0 +22.3
18 24.05 В 1 4000 м дымка 8/0
[Ac trans Ci fib]
+19.4 +17.8 90 +23 +23 комфорт 1008.5 1004.9

 

Местоположение метеостанции Анапа (Краснодарский край, Россия): широта 44.88 долгота 37.28 высота над уровнем моря 32 м.

В архиве по умолчанию представлена погода в Анапе за последнюю неделю. Архивные данные за месяц целиком и за предыдущие месяцы, начиная с января 2011 года, Вы можете получить, выбрав интересующий диапазон дат из раскрывающегося списка и нажав кнопку "Ввод!".


*Определитесь, кто Вы:
робот инопланетянин человек

Внимание! Время в таблицах - всемирное. Для получения местного времени необходимо прибавить поправку, которая равна 3 ч.

Смотрите также архив погоды в соседних городах и на ближайших метеорологических станциях:

Погода в Новороссийске (Краснодарский край, Россия) (48 км)
Погода в Темрюке (Краснодарский край, Россия) (50 км)
Погода в Крымске (Краснодарский край, Россия) (57 км)
Погода в Тамани (Краснодарский край, Россия) (58 км)
Погода в Геленджике (Краснодарский край, Россия) (72 км)
Погода в Опасном (Крым, Россия) (75 км)
Погода в Славянске-на-Кубани (Краснодарский край, Россия) (80 км)
Погода в Керчи (Крым, Россия) (86 км)
Погода в Джубге (Краснодарский край, Россия) (129 км)
Погода в Мысовом (Крым, Россия) (131 км)

Пояснения к столбцам:

Ветер - указаны скорость ветра в м/с - средняя за 10 мин, порывы в срок и между сроками (в фигурных скобках) и направление, откуда дует ветер: С - северный, СВ - северо-восточный, В - восточный, ЮВ - юго-восточный, Ю - южный, ЮЗ - юго-западный, З - западный, СЗ - северо-западный.
Видимость - горизонтальная дальность видимости в метрах или километрах. При видимости от 1 до 10 км при отсутствии осадков обычно наблюдается дымка, при ухудшении видимости до 1 км и менее - туман. В сухую погоду видимость может ухудшаться дымом, пылью или мглою.
Явления - указаны атмосферные явления, наблюдавшиеся в срок или в последний час перед сроком; фигурными скобками обозначены явления, наблюдавшиеся между сроками (за 1-3 часа до срока); квадратными скобками обозначены град или гололедные отложения с указанием их диаметра в мм.
Облачность - указаны через наклонную черту общая и нижняя облачность в баллах и высота нижней границы облаков в метрах; квадратными скобками обозначены формы облаков: Ci - перистые, Cs - перисто-слоистые, Cc - перисто-кучевые, Ac - высококучевые, As - высокослоистые, Sc - слоисто-кучевые, Ns - слоисто-дождевые, Cu - кучевые, Cb - кучево-дождевые. Подробнее классификацию облаков см. в Атласе облаков (PDF).
T - Температура воздуха - температура, измеренная на высоте 2 м над землей.
Td - Температура точки росы - температура, при понижении до которой содержащийся в воздухе водяной пар достигнет насыщения.
f - Относительная влажность воздуха - влажноcть воздуха, измеренная на высоте 2 м над землей.
Te - Эффективная температура - температура, которую ощущает одетый по сезону человек в тени. Характеристика душности погоды. При расчете учитывается влияние влажности воздуха и скорости ветра на теплоощущения человека.
Tes - Эффективная температура на солнце - температура, которую ощущает человек, с поправкой на солнечный нагрев. Характеристика знойности погоды. Зависит от высоты солнца над горизонтом, облачности и скорости ветра. Ночью, в пасмурную погоду, а также при ветре 12 м/с и более поправка равна нулю.
P - Атмосферное давление - приведенное к уровню моря атмосферное давление.
Po - Атмосферное давление - измеренное на уровне метеостанции атмосферное давление.
Tmin - Минимальная температура - минимум температуры воздуха на высоте 2 м над землей.
Tmax - Максимальная температура - максимум температуры воздуха на высоте 2 м над землей.
R - Количество осадков - Количество выпавших осадков за период времени, мм. При наведении курсора мыши на число - период времени, за который выпало указанное количество осадков.
R24 - Количество осадков - Количество выпавших осадков за 24 часа, мм.
S - Снежный покров - Высота снежного покрова, см. При наведении курсора мыши на число - состояние снежного покрова и степень покрытия местности в баллах.